Regional Weather Roundup
Issued by NWS Little Rock, AR

Home | Current Version | Previous Version | Text Only | Print | Product List | Glossary On
Versions: 1 2 3 4 5 6 7 8 9 10 11 12 13 14 15 16 17 18 19 20 21 22 23 24 25 26 27 28 29 30 31 32 33 34 35 36 37 38 39 40 41 42 43 44 45 46 47 48 49 50
000
ASUS44 KLZK 220605
RWRLZK

WEATHER ROUNDUP FOR ARKANSAS
NATIONAL WEATHER SERVICE LITTLE ROCK AR
100 AM CDT MON SEP 22 2014

NOTE: "FAIR" INDICATES FEW OR NO CLOUDS BELOW 12,000 FEET WITH NO
SIGNIFICANT WEATHER AND/OR OBSTRUCTIONS TO VISIBILITY.

ARZ001-003-010-029-220700-
NORTHWEST ARKANSAS

CITY           SKY/WX    TMP DP  RH WIND       PRES   REMARKS
FAYETTEVILLE   CLEAR     53  52  96 CALM      30.21R
6HR MIN TEMP:  52; 6HR MAX TEMP:  74;

FORT SMITH     CLEAR     61  55  81 CALM      30.17R
6HR MIN TEMP:  61; 6HR MAX TEMP:  79;

HARRISON       CLEAR     58  49  72 N5        30.21S
6HR MIN TEMP:  58; 6HR MAX TEMP:  69;

BENTONVILLE    CLEAR     57  52  82 NE6       30.22S
6HR MIN TEMP:  57; 6HR MAX TEMP:  72;

ROGERS         CLEAR     56  51  84 N5        30.22S
6HR MIN TEMP:  56; 6HR MAX TEMP:  71;

SILOAM SPGS    CLEAR     61  46  59 NE7       30.22S
6HR MIN TEMP:  61; 6HR MAX TEMP:  72;

HIGHFILL       CLEAR     58  51  78 N7        30.21S
6HR MIN TEMP:  57; 6HR MAX TEMP:  69;

$$

ARZ004-005-016-220700-
NORTH CENTRAL ARKANSAS

CITY           SKY/WX    TMP DP  RH WIND       PRES   REMARKS
BATESVILLE     CLEAR     64  48  55 N6        30.15S
6HR MIN TEMP:  64; 6HR MAX TEMP:  79;

FLIPPIN        CLEAR     63  46  55 N6        30.19S
6HR MIN TEMP:  63; 6HR MAX TEMP:  73;

MTN HOME       CLEAR     62  49  62 NE5       30.18S
6HR MIN TEMP:  62; 6HR MAX TEMP:  71;

$$

ARZ040-041-220700-
WEST CENTRAL ARKANSAS

CITY           SKY/WX    TMP DP  RH WIND       PRES   REMARKS
MENA           CLEAR     70  55  60 CALM      30.16S
MOUNT IDA      CLEAR     65  62  90 CALM      30.13S
6HR MIN TEMP:  65; 6HR MAX TEMP:  77;

$$

ARZ009-017-025-026-028-220700-
NORTHEAST ARKANSAS

CITY           SKY/WX    TMP DP  RH WIND       PRES   REMARKS
CORNING          N/A     59  52  77 N7        30.15R
JONESBORO      CLEAR     67  50  54 N6        30.13R
6HR MIN TEMP:  67; 6HR MAX TEMP:  76;

NEWPORT        CLEAR     58  53  83 NW9       30.15R
6HR MIN TEMP:  58; 6HR MAX TEMP:  73;

WALNUT RIDGE   CLEAR     59  30  33 N8        30.13S
6HR MIN TEMP:  59; 6HR MAX TEMP:  72;

BLYTHEVILLE    CLEAR     56  55  97 N6        30.12R
6HR MIN TEMP:  56; 6HR MAX TEMP:  71;

$$

ARZ022-023-033-042-044-220700-
CENTRAL ARKANSAS

CITY           SKY/WX    TMP DP  RH WIND       PRES   REMARKS
LITTLE ROCK    PTCLDY    67  50  54 N8        30.13S
6HR MIN TEMP:  67; 6HR MAX TEMP:  80;

N LITTLE ROCK    N/A     67  54  61 N6        30.13S
6HR MIN TEMP:  67; 6HR MAX TEMP:  77;

JACKSONVILLE   CLEAR     66  51  58 N6        30.13S
6HR MIN TEMP:  66; 6HR MAX TEMP:  79;

SEARCY         CLEAR     65  50  58 N8        30.15R
6HR MIN TEMP:  65; 6HR MAX TEMP:  82;

HOT SPRINGS    MOCLDY    73  48  41 N12G20    30.13R
6HR MIN TEMP:  73; 6HR MAX TEMP:  80;

RUSSELLVILLE   CLEAR     58  55  90 CALM      30.16R
6HR MIN TEMP:  58; 6HR MAX TEMP:  79;

CLINTON        FAIR      57  55  94 CALM      30.16S
$$

ARZ036-220700-
EAST ARKANSAS

CITY           SKY/WX    TMP DP  RH WIND       PRES   REMARKS
WEST MEMPHIS   CLEAR     65  54  67 NE9       30.10R
6HR MIN TEMP:  64; 6HR MAX TEMP:  81;

$$

ARZ050-053-066-070-073-220700-
SOUTHWEST ARKANSAS

CITY           SKY/WX    TMP DP  RH WIND       PRES   REMARKS
ARKADELPHIA    MOCLDY    73  62  68 NE9       30.12R
6HR MIN TEMP:  73; 6HR MAX TEMP:  82;

CAMDEN         MOCLDY    73  66  78 NE8       30.09R
TEXARKANA      CLOUDY    76  72  87 NE7       30.09R
6HR MIN TEMP:  76; 6HR MAX TEMP:  81;

EL DORADO      MOCLDY    75  69  81 N7        30.08S
6HR MIN TEMP:  73; 6HR MAX TEMP:  83;

DE QUEEN       MOCLDY    73  62  68 N6        30.09S
6HR MIN TEMP:  73; 6HR MAX TEMP:  81;

$$

ARZ056-057-069-220700-
SOUTHEAST ARKANSAS

CITY           SKY/WX    TMP DP  RH WIND       PRES   REMARKS
PINE BLUFF     CLEAR     69  54  58 N7        30.11R
6HR MIN TEMP:  69; 6HR MAX TEMP:  81;

STUTTGART      PTCLDY    63  54  72 N9        30.11S
6HR MIN TEMP:  63; 6HR MAX TEMP:  81;

MONTICELLO     PTCLDY    75  56  51 VRB5      30.08R
6HR MIN TEMP:  75; 6HR MAX TEMP:  83;


$$





USA.gov is the U.S. government's official web portal to all federal, state and local government web resources and services.